PBO Station Position Time Series. Reference Frame : NAM14
Format Version,1.1.1
4-character ID,KYTC
Station name,KY_HWY_DIST_3
Begin Date, 2008-01-31
End Date, 2023-06-26
Release Date, 2023-06-27
Reference position, 36.9891674632 North Latitude, -86.4745056172 East Longitude, 115.63133 meters elevation,
Date, North (mm), East (mm), Vertical (mm), North Std. Deviation (mm), East Std. Deviation (mm),              Vertical Std. Deviation (mm), Quality,
2008-01-31,0.00, 0.00, 0.00, 2.00, 1.79, 8.00, repro,
2008-02-01,2.52, -0.50, -2.90, 2.08, 1.82, 8.32, repro,
2008-02-02,0.14, 0.27, -0.25, 2.04, 1.79, 8.01, repro,
2008-02-03,0.18, 1.19, -0.19, 1.97, 1.75, 7.69, repro,
2008-02-04,0.22, 0.77, -4.15, 1.99, 1.67, 7.58, repro,
2008-02-05,0.63, 2.35, 10.27, 2.12, 1.78, 8.28, repro,
2008-02-06,0.69, -3.17, 17.28, 3.21, 2.75, 12.32, repro,
2008-02-07,0.15, -1.60, 9.46, 2.06, 1.74, 7.81, repro,
2008-02-08,0.01, 0.79, 1.59, 1.93, 1.68, 7.51, repro,
2008-02-09,1.31, -1.07, 2.96, 2.00, 1.71, 7.76, repro,
2008-02-10,1.87, -2.03, -7.17, 1.93, 1.66, 7.40, repro,
2008-02-11,0.75, -0.64, -3.42, 1.98, 1.69, 7.58, repro,
2008-02-12,1.33, -1.00, -1.52, 2.27, 2.00, 8.83, repro,
2008-02-13,1.18, -1.60, 1.37, 1.97, 1.67, 7.48, repro,
2008-02-14,1.14, -1.98, 0.46, 1.93, 1.67, 7.39, repro,
2008-02-15,1.15, -0.36, -1.79, 1.98, 1.67, 7.54, repro,
2008-02-16,0.47, -0.31, 1.42, 1.96, 1.69, 7.45, repro,
2008-02-17,0.29, -1.39, 8.45, 1.93, 1.68, 7.46, repro,
2008-02-18,-0.39, -1.77, 7.25, 1.97, 1.69, 7.46, repro,
2008-02-19,1.36, -1.08, -3.37, 1.98, 1.68, 7.53, repro,
2008-02-20,2.29, -0.58, -6.72, 2.03, 1.74, 7.67, repro,
2008-02-21,1.58, -0.91, -5.56, 1.93, 1.66, 7.41, repro,
2008-02-22,-0.57, -0.98, -5.60, 1.92, 1.67, 7.40, repro,
2008-02-23,1.00, -1.90, 1.32, 1.97, 1.68, 7.49, repro,
2008-02-24,0.39, -0.88, -5.72, 1.92, 1.66, 7.36, repro,
2008-02-25,1.23, -0.78, -0.14, 1.99, 1.69, 7.58, repro,
2008-02-26,0.07, -1.09, 1.87, 1.95, 1.69, 7.52, repro,
2008-02-27,0.49, -0.52, -4.86, 1.89, 1.66, 7.32, repro,
2008-02-28,0.45, -0.39, -4.93, 2.00, 1.75, 7.69, repro,
2008-03-02,0.73, 0.83, -8.12, 2.03, 1.76, 7.90, repro,
2008-03-03,-0.34, 1.69, 6.26, 2.22, 2.02, 8.55, repro,
2008-03-04,136.18, -150.44, -315.77, 272.09, 477.17, 1571.02, repro,
2008-03-05,-0.71, -0.84, -2.43, 1.99, 1.72, 7.70, repro,
2008-03-06,0.19, 0.72, -2.53, 2.04, 1.84, 7.90, repro,
2008-03-12,-0.03, 0.39, 5.10, 1.99, 1.76, 7.68, repro,
2008-03-13,-1.18, -0.05, 5.34, 1.98, 1.73, 7.61, repro,
2008-03-14,-0.34, 1.56, -0.31, 2.10, 1.95, 8.26, repro,
2008-03-15,-0.12, 1.08, 6.60, 1.95, 1.73, 7.58, repro,
2008-03-16,-0.01, -0.37, -1.66, 2.01, 1.74, 7.77, repro,
2008-03-17,-0.51, 1.85, -7.18, 2.12, 1.88, 8.04, repro,
2008-03-18,-1.31, 0.92, -1.56, 1.96, 1.75, 7.63, repro,
2008-03-19,0.65, -0.10, -2.73, 1.94, 1.73, 7.52, repro,
2008-03-20,-0.36, -1.59, -5.82, 1.90, 1.71, 7.34, repro,
2008-03-21,0.34, -0.58, -7.62, 1.92, 1.70, 7.34, repro,
2008-03-22,-0.31, -1.08, -3.08, 1.95, 1.73, 7.41, repro,
2008-03-23,0.41, 0.29, -1.17, 2.02, 1.74, 7.55, repro,
2008-03-24,0.42, -0.06, -7.02, 1.94, 1.74, 7.48, repro,
2008-03-25,-0.16, -0.48, -5.02, 2.02, 1.77, 7.76, repro,
2008-03-26,-1.25, -0.05, 3.25, 1.93, 1.68, 7.37, repro,
2008-03-27,-1.53, -0.40, 1.73, 2.00, 1.76, 7.73, repro,
2008-03-28,-0.86, -0.42, 0.44, 1.93, 1.66, 7.18, repro,
2008-03-29,0.71, 1.23, -0.22, 1.88, 1.68, 7.22, repro,
2008-03-30,0.66, 1.30, -3.09, 1.87, 1.66, 7.15, repro,
2008-03-31,0.50, 0.87, -3.82, 1.95, 1.68, 7.41, repro,
2008-04-01,-0.27, -1.66, -2.03, 2.11, 1.86, 8.18, repro,
2008-04-02,-0.44, -1.34, -0.35, 1.97, 1.73, 7.41, repro,
2008-04-03,0.04, 0.62, -5.84, 2.05, 1.81, 7.89, repro,
2008-04-04,-0.78, -0.66, -0.24, 1.90, 1.67, 7.26, repro,
2008-04-05,0.37, 0.07, -0.36, 1.88, 1.65, 7.14, repro,
2008-04-06,-0.32, -0.14, 0.84, 1.88, 1.66, 7.12, repro,
2008-04-07,0.10, 0.07, -3.27, 1.94, 1.69, 7.41, repro,
2008-04-08,-1.68, 0.68, 1.90, 1.92, 1.68, 7.22, repro,
2008-04-09,1.91, 0.13, 4.57, 1.94, 1.71, 7.37, repro,
2008-04-10,0.48, 0.96, 0.83, 1.92, 1.71, 7.38, repro,
2008-04-11,2.56, 0.31, 12.28, 1.97, 1.75, 7.54, repro,
2008-04-12,-1.92, -1.79, 5.26, 1.97, 1.68, 7.37, repro,
2008-04-13,-0.60, -0.54, -2.85, 1.92, 1.68, 7.22, repro,
2008-04-14,0.10, -0.87, -0.30, 1.89, 1.66, 7.15, repro,
2008-04-15,0.58, -1.09, -3.49, 2.19, 2.00, 8.39, repro,
2008-04-16,-0.70, 0.51, -0.45, 2.07, 1.85, 8.04, repro,
2008-04-17,-0.41, 0.52, 6.49, 1.91, 1.68, 7.24, repro,
2008-04-18,-0.61, 0.41, 9.52, 2.09, 1.85, 8.03, repro,
2008-04-19,-0.18, 2.15, 1.45, 1.87, 1.64, 7.11, repro,
2008-04-20,-0.23, -1.02, -3.23, 2.01, 1.76, 7.64, repro,
2008-04-21,0.56, -0.02, 6.40, 1.90, 1.65, 7.20, repro,
2008-04-22,-0.58, -0.98, 3.56, 1.89, 1.64, 7.17, repro,
2008-04-23,-0.10, -1.37, 3.95, 1.95, 1.71, 7.47, repro,
2008-04-24,-0.72, -0.07, -2.02, 1.92, 1.67, 7.29, repro,
2008-04-25,0.07, 1.33, 0.29, 1.92, 1.68, 7.29, repro,
2008-04-26,0.09, 0.93, 6.37, 1.94, 1.74, 7.50, repro,
2008-04-27,-0.22, -0.14, -0.78, 1.91, 1.70, 7.32, repro,
2008-04-28,-0.26, -0.20, 0.63, 1.91, 1.72, 7.38, repro,
2008-04-29,-1.24, -0.68, 6.60, 1.94, 1.75, 7.57, repro,
2008-04-30,-0.29, -0.29, -4.16, 1.90, 1.67, 7.32, repro,
2008-05-01,-1.64, 1.00, 7.52, 1.93, 1.64, 7.30, repro,
2008-05-02,0.18, 0.34, 5.47, 2.21, 1.93, 8.50, repro,
2008-05-05,0.66, -0.26, 1.35, 3.36, 2.95, 12.87, repro,
2008-05-06,0.00, -0.80, 3.07, 1.94, 1.71, 7.51, repro,
2008-05-07,-0.04, 1.87, 14.68, 1.96, 1.70, 7.49, repro,
2008-05-08,2.38, 1.95, 5.19, 2.06, 1.78, 7.91, repro,
2008-05-09,-0.30, -0.55, 11.74, 1.91, 1.67, 7.33, repro,
2008-05-10,-0.06, 0.46, 5.82, 1.95, 1.68, 7.38, repro,
2008-05-11,0.65, 1.57, 5.72, 1.95, 1.70, 7.43, repro,
2008-05-12,2.40, -1.42, 8.95, 2.10, 1.82, 8.26, repro,
2008-05-13,1.84, 0.24, -2.62, 1.90, 1.64, 7.27, repro,
2008-05-14,0.13, 2.56, 5.68, 1.95, 1.71, 7.50, repro,
2008-05-15,2.16, -0.18, -1.85, 1.88, 1.65, 7.23, repro,
2008-05-16,-0.14, -2.16, -6.00, 1.92, 1.65, 7.41, repro,
2008-05-17,0.43, 0.50, 4.77, 1.94, 1.66, 7.43, repro,
2008-05-18,0.84, -1.92, 13.33, 1.93, 1.69, 7.47, repro,
2008-05-19,0.60, 1.05, 6.65, 1.95, 1.70, 7.50, repro,
2008-05-20,-0.02, -2.40, 4.72, 1.94, 1.69, 7.38, repro,
2008-05-21,-0.10, -0.51, 8.72, 1.92, 1.67, 7.33, repro,
2008-05-22,-0.30, -0.79, 7.01, 1.90, 1.65, 7.37, repro,
2008-05-23,2.72, -0.20, 5.71, 1.92, 1.68, 7.51, repro,
2008-05-24,0.58, 1.20, 9.50, 1.94, 1.66, 7.45, repro,
2008-05-25,1.42, 1.14, -3.53, 1.94, 1.67, 7.47, repro,
2008-05-26,1.27, -1.00, 6.89, 1.92, 1.70, 7.52, repro,
2008-05-27,0.62, -0.94, -7.67, 1.88, 1.65, 7.28, repro,
2008-05-28,1.78, 0.52, -3.07, 1.93, 1.65, 7.46, repro,
2008-05-29,1.76, -0.43, 0.03, 2.24, 1.91, 8.63, repro,
2008-05-30,1.38, -0.42, -0.61, 1.94, 1.65, 7.47, repro,
2008-05-31,-1.23, -1.11, 5.34, 2.32, 2.08, 9.11, repro,
2008-06-01,0.72, -1.13, 9.39, 2.02, 1.79, 7.89, repro,
2008-06-02,-1.26, -1.16, 3.62, 1.96, 1.68, 7.50, repro,
2008-06-03,1.44, -2.17, -5.72, 1.94, 1.69, 7.61, repro,
2008-06-04,-0.26, -0.49, 18.50, 1.91, 1.65, 7.41, repro,
2008-06-05,-0.00, 0.03, 5.86, 1.88, 1.64, 7.29, repro,
2008-06-06,-0.29, 1.08, 13.44, 1.91, 1.69, 7.36, repro,
2008-06-07,0.27, 0.06, -2.91, 1.96, 1.71, 7.61, repro,
2008-06-08,0.73, -1.17, 0.88, 1.93, 1.68, 7.48, repro,
2008-06-09,-0.58, -1.16, 4.34, 2.00, 1.77, 7.78, repro,
2008-06-10,0.05, -0.83, 5.37, 1.89, 1.65, 7.39, repro,
2008-06-11,-1.63, -0.00, 0.62, 1.87, 1.63, 7.25, repro,
2008-06-12,2.43, -0.44, 7.97, 2.84, 2.50, 10.78, repro,
2008-06-13,-1.62, -0.67, 1.53, 1.98, 1.67, 7.61, repro,
2008-06-14,-0.22, -1.53, -1.76, 1.99, 1.73, 7.72, repro,
2008-06-15,0.39, -3.79, -3.46, 1.91, 1.68, 7.41, repro,
2008-06-16,0.06, 0.69, 6.51, 1.98, 1.70, 7.72, repro,
2008-06-17,2.16, -3.04, 7.37, 1.94, 1.68, 7.45, repro,
2008-06-18,0.84, -0.58, -2.71, 1.90, 1.63, 7.28, repro,
2008-06-19,-1.68, -0.33, 7.60, 1.98, 1.70, 7.58, repro,
2008-06-20,1.34, -0.77, 0.52, 1.88, 1.62, 7.24, repro,
2008-06-21,-1.91, 0.14, 4.13, 1.88, 1.63, 7.26, repro,
2008-06-22,0.68, -0.83, 2.89, 1.91, 1.65, 7.34, repro,
2008-06-23,2.55, 1.37, 12.09, 2.01, 1.72, 7.79, repro,
2008-06-24,-0.19, -0.76, -0.40, 1.99, 1.70, 7.68, repro,
2008-06-25,0.63, 0.11, -0.81, 1.95, 1.66, 7.47, repro,
2008-06-26,0.85, -0.74, -0.93, 2.10, 1.78, 7.86, repro,
2008-06-27,-1.31, 0.07, 10.14, 2.53, 2.34, 10.17, repro,
2008-06-28,1.44, -2.75, -4.01, 1.99, 1.69, 7.72, repro,
2008-06-29,-4.31, -1.52, 0.38, 1.93, 1.66, 7.46, repro,
2008-06-30,-0.75, -1.11, 2.69, 1.92, 1.66, 7.40, repro,
2008-07-01,1.77, 0.76, -1.04, 1.92, 1.66, 7.38, repro,
2008-07-02,1.03, 0.99, 12.37, 1.93, 1.68, 7.45, repro,
2008-07-03,-0.19, -0.76, 6.92, 1.92, 1.66, 7.46, repro,
2008-07-04,2.46, 0.52, 2.81, 1.94, 1.68, 7.52, repro,
2008-07-05,1.84, 0.67, 4.38, 1.93, 1.70, 7.44, repro,
2008-07-06,1.41, -0.78, 3.76, 1.92, 1.69, 7.45, repro,
2008-07-07,2.43, -0.03, 6.42, 2.00, 1.74, 7.81, repro,
2008-07-08,0.86, 0.68, 14.68, 2.02, 1.70, 7.73, repro,
2008-07-09,-1.08, 2.48, 5.54, 2.12, 1.84, 8.07, repro,
2008-07-10,1.01, -0.52, 1.30, 1.98, 1.75, 7.67, repro,
2008-07-11,0.32, 0.65, -2.54, 2.02, 1.72, 7.79, repro,
2008-07-12,0.03, -0.70, 8.56, 2.33, 1.93, 8.72, repro,
2008-07-13,1.92, 0.26, -0.41, 2.37, 2.02, 9.32, repro,
2008-07-14,0.42, 2.27, 7.68, 1.94, 1.69, 7.46, repro,
2008-07-15,2.92, 0.52, 7.13, 1.93, 1.69, 7.45, repro,
2008-07-16,2.39, -0.58, -6.40, 1.88, 1.63, 7.25, repro,
2008-07-17,1.77, 0.41, 10.27, 1.92, 1.66, 7.37, repro,
2008-07-18,1.40, 2.18, 1.84, 1.94, 1.72, 7.62, repro,
2008-07-19,0.54, 1.38, -7.85, 1.93, 1.70, 7.55, repro,
2008-07-20,0.25, 0.29, 1.15, 2.19, 1.92, 8.62, repro,
2008-07-21,1.76, -0.24, 11.25, 1.95, 1.68, 7.61, repro,
2008-07-22,2.17, -0.82, 5.29, 2.03, 1.80, 8.01, repro,
2008-07-23,2.19, 0.36, 9.55, 1.94, 1.69, 7.61, repro,
2008-07-24,0.64, -0.46, 9.72, 1.96, 1.70, 7.65, repro,
2008-07-25,-1.08, 0.64, 17.64, 1.97, 1.80, 7.69, repro,
2008-07-26,2.33, -2.21, 8.48, 1.96, 1.74, 7.75, repro,
2008-07-27,1.07, 0.64, 7.38, 1.93, 1.69, 7.43, repro,
2008-07-28,4.44, 1.56, 14.64, 2.01, 1.79, 7.81, repro,
2008-07-29,1.59, 0.65, 19.32, 1.93, 1.72, 7.46, repro,
2008-07-30,0.21, 1.51, 21.81, 2.31, 2.01, 8.76, repro,
2008-07-31,2.88, 0.33, 12.48, 1.96, 1.74, 7.72, repro,
2008-08-01,3.21, -0.28, 5.37, 1.91, 1.70, 7.43, repro,
2008-08-02,1.69, 0.01, 1.45, 1.90, 1.65, 7.38, repro,
2008-08-03,3.10, 0.47, 7.89, 1.98, 1.71, 7.66, repro,
2008-08-04,1.75, 0.66, 10.56, 1.96, 1.72, 7.57, repro,
2008-08-05,1.13, -0.07, 8.75, 1.98, 1.76, 7.75, repro,
2008-08-06,4.41, -0.28, 13.43, 1.96, 1.74, 7.74, repro,
2008-08-07,5.55, 0.14, 10.69, 2.05, 1.76, 8.09, repro,
2008-08-08,3.51, 1.82, 4.42, 1.98, 1.76, 7.84, repro,
2008-08-09,3.11, 1.55, 11.92, 1.93, 1.68, 7.53, repro,
2008-08-10,-0.79, 2.34, 22.26, 1.99, 1.70, 7.83, repro,
2008-08-11,2.36, 0.91, 4.71, 2.23, 1.85, 8.57, repro,
2008-08-12,3.97, 0.27, 13.44, 1.95, 1.67, 7.59, repro,
2008-08-13,2.29, 0.84, 11.02, 1.91, 1.67, 7.45, repro,
2008-08-14,1.96, 1.82, 8.09, 1.92, 1.67, 7.44, repro,
2008-08-15,2.37, 0.07, 13.52, 2.02, 1.77, 8.02, repro,
2008-08-16,2.19, 1.11, 3.24, 1.90, 1.67, 7.41, repro,
2008-08-17,2.78, 0.52, 10.07, 2.07, 1.79, 8.05, repro,
2008-08-18,3.86, 0.54, 12.78, 1.94, 1.72, 7.58, repro,
2008-08-19,3.99, 1.19, 5.21, 2.00, 1.72, 7.81, repro,
2008-08-20,3.65, 2.79, 11.76, 1.93, 1.68, 7.57, repro,
2008-08-21,4.23, 2.18, 8.07, 1.99, 1.71, 7.81, repro,
2008-08-22,1.62, 2.07, 18.25, 2.01, 1.77, 7.80, repro,
2008-08-23,3.00, 0.91, 10.21, 1.94, 1.72, 7.58, repro,
2008-08-24,1.34, -0.19, 15.22, 1.99, 1.72, 7.84, repro,
2008-08-25,0.50, 2.08, 16.96, 1.97, 1.72, 7.70, repro,
2008-08-26,3.26, 2.17, 22.34, 2.01, 1.71, 7.83, repro,
2008-08-27,2.53, 1.50, 14.96, 2.04, 1.79, 7.94, repro,
2008-08-28,3.57, 4.45, 14.32, 2.08, 1.81, 8.16, repro,
2008-08-29,1.69, 0.78, 7.14, 2.04, 1.81, 8.02, repro,
2008-08-30,4.34, 1.64, 8.92, 1.95, 1.71, 7.69, repro,
2008-08-31,5.08, 2.09, 4.44, 1.95, 1.70, 7.66, repro,
2008-09-01,5.47, 3.52, 9.98, 2.04, 1.79, 7.93, repro,
2008-09-02,3.23, 2.11, 14.65, 1.98, 1.73, 7.75, repro,
2008-09-03,2.30, 2.00, 14.66, 1.96, 1.70, 7.62, repro,
2008-09-04,-1.24, 3.94, 13.59, 2.21, 1.88, 8.50, repro,
2008-09-05,3.03, 3.74, 4.82, 2.05, 1.76, 8.11, repro,
2008-09-06,5.04, 1.41, 19.17, 2.06, 1.87, 8.04, repro,
2008-09-07,3.70, 1.90, 14.91, 2.02, 1.74, 7.89, repro,
2008-09-08,4.06, 2.94, -0.17, 2.02, 1.79, 7.86, repro,
2008-09-09,0.87, 0.75, 7.28, 2.07, 1.89, 8.13, repro,
2008-09-10,2.22, 3.75, 5.92, 2.05, 1.78, 7.94, repro,
2008-09-11,3.37, 3.36, 10.61, 1.99, 1.74, 7.77, repro,
2008-09-12,3.88, 3.76, 14.77, 2.21, 1.80, 8.28, repro,
2008-09-13,3.47, 2.45, 9.38, 2.05, 1.79, 7.96, repro,
2008-09-14,0.44, 2.76, 16.50, 2.09, 1.78, 8.13, repro,
2008-09-15,2.65, 1.52, 8.63, 2.02, 1.81, 7.96, repro,
2008-09-16,2.70, 1.11, 0.44, 2.10, 1.75, 8.21, repro,
2008-09-17,4.32, 2.23, 6.70, 2.18, 1.86, 8.43, repro,
2008-09-18,3.93, 3.03, 5.15, 2.16, 1.86, 8.47, repro,
2008-09-19,2.93, 2.00, 7.38, 1.98, 1.79, 7.78, repro,
2008-09-20,3.41, 1.87, 14.17, 1.95, 1.73, 7.65, repro,
2008-09-21,2.78, 3.25, 4.37, 2.02, 1.75, 7.95, repro,
2008-09-22,3.03, 2.65, -1.17, 2.02, 1.78, 7.86, repro,
2008-09-23,3.01, 2.45, 6.03, 1.96, 1.72, 7.61, repro,
2008-09-24,2.70, 1.11, 12.93, 2.02, 1.74, 7.68, repro,
2008-09-25,2.70, 1.45, 7.97, 1.93, 1.75, 7.62, repro,
2008-09-26,2.88, 1.08, 11.04, 2.05, 1.78, 8.03, repro,
2008-09-27,2.58, 1.01, 3.93, 1.97, 1.78, 7.73, repro,
2008-09-28,4.03, 1.23, 9.03, 2.00, 1.72, 7.71, repro,
2008-09-29,2.24, 2.47, 6.96, 1.96, 1.72, 7.66, repro,
2008-09-30,1.87, 2.78, 16.80, 1.97, 1.75, 7.81, repro,
2008-10-01,4.46, 1.69, 13.26, 2.00, 1.79, 7.86, repro,
2008-10-02,2.59, 1.03, 7.56, 2.07, 1.75, 7.85, repro,
2008-10-03,2.57, 2.38, 4.87, 2.00, 1.72, 7.57, repro,
2008-10-04,2.95, 1.21, 7.72, 1.97, 1.69, 7.61, repro,
2008-10-05,3.53, 1.82, 4.66, 1.90, 1.69, 7.48, repro,
2008-10-06,3.81, 3.34, 13.15, 1.91, 1.70, 7.55, repro,
2008-10-07,2.66, 3.19, 20.28, 1.98, 1.75, 7.76, repro,
2008-10-08,4.91, 2.27, 6.88, 1.96, 1.74, 7.57, repro,
2008-10-09,4.84, 1.78, 7.06, 2.04, 1.73, 7.82, repro,
2008-10-10,5.46, 1.40, 4.35, 1.92, 1.71, 7.48, repro,
2008-10-11,5.32, 2.23, -0.20, 1.88, 1.66, 7.29, repro,
2008-10-12,5.71, 2.80, 5.46, 1.89, 1.67, 7.39, repro,
2008-10-13,4.26, 1.90, 4.54, 1.90, 1.70, 7.42, repro,
2008-10-14,5.01, 1.09, 3.29, 2.06, 1.76, 7.89, repro,
2008-10-15,3.74, 1.24, -6.32, 1.95, 1.73, 7.56, repro,
2008-10-16,4.26, 1.88, 6.15, 1.97, 1.69, 7.56, repro,
2008-10-17,6.16, 0.52, 4.43, 1.87, 1.65, 7.22, repro,
2008-10-18,4.12, 2.69, 6.74, 1.87, 1.64, 7.21, repro,
2008-10-19,4.82, 2.24, 4.75, 1.86, 1.64, 7.19, repro,
2008-10-20,5.49, 1.63, -0.08, 1.93, 1.67, 7.48, repro,
2008-10-21,5.22, 0.75, 5.15, 1.92, 1.67, 7.44, repro,
2008-10-22,6.55, 1.29, -1.09, 1.87, 1.65, 7.25, repro,
2008-10-23,5.06, 2.47, 5.23, 1.94, 1.74, 7.51, repro,
2008-10-24,4.27, 1.90, -0.27, 1.92, 1.69, 7.46, repro,
2008-10-25,4.50, 2.92, 7.29, 2.00, 1.77, 7.79, repro,
2008-10-26,5.50, 1.75, 0.37, 2.56, 2.19, 9.90, repro,
2008-10-27,-2.71, 3.95, 22.07, 12.97, 11.68, 62.77, repro,
2008-10-28,16.03, -3.24, -24.44, 13.44, 32.30, 81.77, repro,
2008-10-29,3.11, 1.63, 8.84, 3.00, 2.80, 12.09, repro,
2008-10-30,6.00, 2.35, -6.63, 2.90, 2.49, 11.31, repro,
2008-10-31,4.59, 2.41, -1.06, 1.97, 1.69, 7.54, repro,
2008-11-01,5.03, 2.84, -0.55, 1.93, 1.74, 7.48, repro,
2008-11-02,5.85, 1.94, 4.16, 1.91, 1.70, 7.42, repro,
2008-11-03,5.10, 3.46, 4.06, 1.99, 1.75, 7.69, repro,
2008-11-04,3.97, 2.36, 11.69, 1.92, 1.71, 7.48, repro,
2008-11-05,5.47, 2.54, 5.61, 1.95, 1.77, 7.59, repro,
2008-11-06,4.47, 2.53, 4.71, 1.89, 1.69, 7.36, repro,
2008-11-07,4.03, 1.85, 8.29, 1.99, 1.75, 7.73, repro,
2008-11-08,4.01, 1.88, 9.14, 1.99, 1.78, 7.79, repro,
2008-11-09,6.66, 2.36, 14.04, 1.91, 1.72, 7.50, repro,
2008-11-10,5.39, 2.78, 3.28, 2.04, 1.81, 8.02, repro,
2008-11-11,6.62, 2.96, -1.45, 1.93, 1.68, 7.49, repro,
2008-11-12,5.73, 3.42, 8.82, 2.10, 1.86, 8.09, repro,
2008-11-13,4.06, 2.07, 13.78, 1.92, 1.71, 7.51, repro,
2008-11-14,4.24, 2.77, 16.97, 2.05, 1.77, 7.95, repro,
2008-11-15,5.30, 1.74, -5.82, 1.92, 1.71, 7.45, repro,
2008-11-16,6.05, 2.18, 8.28, 1.92, 1.67, 7.41, repro,
2008-11-17,6.97, 1.63, 2.10, 2.15, 1.90, 8.39, repro,
2008-11-20,6.97, 2.49, -19.60, 6.31, 6.17, 23.56, repro,
2008-11-21,6.25, 4.02, -12.29, 3.14, 2.80, 11.81, repro,
2008-11-22,6.22, 2.66, -9.81, 2.00, 1.73, 7.73, repro,
2008-11-23,6.07, 3.60, -4.94, 1.93, 1.70, 7.63, repro,
2008-11-24,3.73, 4.37, 2.50, 1.92, 1.74, 7.63, repro,
2008-11-25,4.86, 2.07, 3.19, 1.95, 1.70, 7.57, repro,
2008-11-26,5.56, 3.03, 0.40, 1.93, 1.71, 7.48, repro,
2008-11-27,5.82, 3.95, 2.88, 1.94, 1.69, 7.53, repro,
2008-11-28,4.87, 3.45, 8.09, 1.91, 1.71, 7.47, repro,
2008-11-29,4.89, 3.81, 12.70, 1.97, 1.74, 7.66, repro,
2008-11-30,4.64, 4.98, 11.49, 1.91, 1.68, 7.45, repro,
2008-12-01,4.46, 3.57, 12.37, 1.99, 1.81, 7.85, repro,
2008-12-02,6.92, 4.17, 4.78, 2.37, 2.06, 9.14, repro,
2008-12-03,3.96, 3.12, 4.05, 1.90, 1.69, 7.41, repro,
2008-12-04,5.08, 4.30, -0.47, 1.97, 1.73, 7.74, repro,
2008-12-05,5.28, 3.90, -0.90, 1.95, 1.74, 7.58, repro,
2008-12-06,4.70, 3.69, 1.03, 1.90, 1.69, 7.39, repro,
2008-12-07,6.01, 3.54, 3.58, 1.93, 1.76, 7.59, repro,
2008-12-08,5.04, 4.33, 0.09, 2.00, 1.76, 7.72, repro,
2008-12-09,3.05, 4.31, 5.64, 1.89, 1.68, 7.35, repro,
2008-12-10,3.66, 3.49, 7.97, 1.88, 1.65, 7.23, repro,
2008-12-11,5.07, 3.60, 0.18, 2.05, 1.82, 7.90, repro,
2008-12-12,4.13, 3.29, -2.55, 1.94, 1.66, 7.40, repro,
2008-12-13,3.06, 4.01, -3.87, 2.01, 1.70, 7.70, repro,
2008-12-14,1.90, 3.03, 2.79, 1.88, 1.65, 7.32, repro,
2008-12-15,3.62, 2.13, -0.36, 1.88, 1.65, 7.30, repro,
2008-12-16,4.76, 3.34, -9.00, 1.90, 1.68, 7.40, repro,
2008-12-17,3.06, 3.30, -6.01, 1.96, 1.69, 7.61, repro,
2008-12-18,3.01, 3.26, -1.05, 1.90, 1.68, 7.35, repro,
2008-12-19,4.14, 2.19, 4.74, 2.04, 1.84, 7.92, repro,
2008-12-20,3.42, 2.56, 3.57, 1.90, 1.67, 7.40, repro,
2008-12-21,5.09, 0.82, 3.84, 1.97, 1.71, 7.54, repro,
2008-12-22,4.08, 2.64, -7.72, 1.99, 1.81, 7.86, repro,
2008-12-23,3.39, 1.98, -3.94, 1.96, 1.74, 7.57, repro,
2008-12-24,3.21, 3.28, -11.38, 1.89, 1.67, 7.37, repro,
2008-12-25,2.40, 2.77, -1.05, 1.97, 1.70, 7.63, repro,
2008-12-26,3.26, 2.66, 5.06, 2.13, 1.79, 8.12, repro,
2008-12-27,1.05, 2.31, 10.64, 1.96, 1.68, 7.55, repro,
2008-12-28,3.53, 2.81, 7.41, 1.95, 1.69, 7.53, repro,
2008-12-29,4.03, 1.23, -0.94, 1.87, 1.65, 7.29, repro,
2008-12-30,1.51, 2.30, -0.33, 1.94, 1.69, 7.68, repro,
2008-12-31,3.18, 1.67, 2.16, 2.00, 1.75, 7.72, repro,
2009-01-01,2.14, 2.42, 4.73, 1.99, 1.74, 7.90, repro,
2009-01-02,1.87, 1.30, 9.88, 1.97, 1.72, 7.74, repro,
2009-01-03,1.85, 2.69, 8.28, 1.94, 1.68, 7.48, repro,
2009-01-04,1.20, 3.48, 1.20, 1.91, 1.70, 7.57, repro,
2009-01-05,-0.02, 1.34, 5.24, 1.90, 1.68, 7.53, repro,
2009-01-06,1.94, 3.29, 8.00, 1.92, 1.70, 7.63, repro,
2009-01-07,2.09, 1.80, 12.91, 1.93, 1.68, 7.53, repro,
2009-01-08,1.29, 1.97, 5.63, 1.98, 1.73, 7.61, repro,
2009-01-09,2.21, 1.87, -0.91, 1.97, 1.73, 7.66, repro,
2009-01-10,1.29, 1.27, -5.85, 1.92, 1.69, 7.58, repro,
2009-01-11,0.60, 2.01, 1.08, 1.93, 1.75, 7.73, repro,
2009-01-12,1.13, 3.06, -0.23, 2.00, 1.81, 8.09, repro,
2009-01-13,2.63, 1.86, -2.16, 1.99, 1.80, 7.95, repro,
2009-01-14,2.02, 1.93, -9.74, 1.93, 1.72, 7.76, repro,
2009-01-15,2.60, 0.64, -11.26, 1.89, 1.71, 7.62, repro,
2009-01-16,2.16, 1.84, -14.90, 1.92, 1.73, 7.66, repro,
2009-01-17,0.71, 1.53, -9.71, 1.95, 1.72, 7.79, repro,
2009-01-18,1.26, 0.71, 5.32, 1.96, 1.77, 7.85, repro,
2009-01-19,4.67, 1.77, 0.54, 1.95, 1.77, 7.86, repro,
2009-01-20,2.98, 0.16, -2.76, 1.92, 1.72, 7.59, repro,
2009-01-21,1.88, 1.01, -5.65, 1.94, 1.75, 7.68, repro,
2009-01-22,1.28, 1.38, 2.79, 2.00, 1.83, 8.04, repro,
2009-01-23,2.61, 2.08, -1.59, 2.52, 2.07, 9.84, repro,
2009-01-24,2.97, 1.71, -10.40, 1.98, 1.77, 7.96, repro,
2009-01-25,3.28, 1.76, -9.60, 1.91, 1.69, 7.65, repro,
2009-01-26,2.31, 1.57, -6.89, 1.93, 1.68, 7.59, repro,
2009-01-27,-0.87, 1.36, -21.13, 1.90, 1.67, 7.45, repro,
2009-01-28,1.15, 1.81, 2.45, 1.98, 1.69, 7.62, repro,
2009-01-29,2.25, 1.46, -0.52, 1.87, 1.63, 7.24, repro,
2009-01-30,2.42, 0.03, -7.83, 1.88, 1.63, 7.27, repro,
2009-01-31,2.07, 2.99, -3.97, 1.85, 1.62, 7.21, repro,
2009-02-01,2.94, 0.53, -5.14, 1.89, 1.68, 7.34, repro,
2009-02-02,0.68, 1.63, -3.68, 2.01, 1.70, 7.73, repro,
2009-02-03,3.25, -0.48, -4.48, 1.96, 1.72, 7.57, repro,
2009-02-04,2.98, 0.30, -11.63, 1.91, 1.63, 7.34, repro,
2009-02-05,2.72, 1.97, -14.08, 1.92, 1.64, 7.38, repro,
2009-02-06,3.21, 1.78, -6.94, 1.96, 1.73, 7.71, repro,
2009-02-07,1.26, 1.27, -6.81, 1.93, 1.69, 7.49, repro,
2009-02-08,2.02, 1.76, -2.34, 1.97, 1.69, 7.57, repro,
2009-02-09,2.32, 3.37, -1.93, 1.98, 1.67, 7.50, repro,
2009-02-10,0.59, 2.74, 1.62, 1.88, 1.63, 7.29, repro,
2009-02-11,2.15, 1.46, 9.75, 1.97, 1.70, 7.57, repro,
2009-02-12,2.16, 1.03, 0.14, 1.90, 1.64, 7.23, repro,
2009-02-13,2.22, 1.65, 5.05, 2.20, 1.85, 8.43, repro,
2009-02-14,3.17, 2.14, -2.86, 1.91, 1.66, 7.33, repro,
2009-02-15,2.52, 2.22, -4.18, 2.01, 1.72, 7.71, repro,
2009-02-16,2.47, 2.26, -1.20, 1.91, 1.64, 7.28, repro,
2009-02-17,3.41, 1.52, -6.76, 1.97, 1.73, 7.67, repro,
2009-02-18,1.83, 2.02, 8.71, 2.19, 1.95, 8.46, repro,
2009-02-19,3.14, 0.89, -0.33, 1.97, 1.67, 7.48, repro,
2009-02-20,2.08, 2.43, -4.58, 2.00, 1.73, 7.64, repro,
2009-02-21,2.53, 2.63, -4.93, 2.00, 1.71, 7.63, repro,
2009-02-22,2.19, 2.88, -9.51, 2.08, 1.75, 7.95, repro,
2009-02-23,1.39, 2.17, -10.74, 2.23, 2.04, 8.70, repro,
2009-02-24,1.74, 2.63, -15.11, 2.27, 2.00, 8.83, repro,
2009-02-25,1.05, 2.93, -9.51, 12.71, 28.75, 194.75, repro,
2009-02-26,0.71, 3.40, -1.08, 2.06, 1.77, 7.89, repro,
2009-02-27,-0.31, 4.61, 2.50, 2.23, 1.86, 8.29, repro,
2009-02-28,2.02, 2.05, -9.17, 2.14, 1.80, 7.91, repro,
2009-03-01,2.63, 1.76, -8.13, 2.01, 1.76, 7.62, repro,
2009-03-02,2.47, 2.19, -5.67, 2.03, 1.75, 7.83, repro,
2009-03-03,2.02, 2.15, -4.79, 2.12, 1.84, 8.18, repro,
2009-03-04,3.16, 4.29, -4.36, 2.09, 1.81, 8.06, repro,
2009-03-05,0.79, 3.60, 2.01, 2.15, 1.78, 8.21, repro,
2009-03-06,0.46, 2.93, 3.13, 2.17, 1.78, 8.14, repro,
2009-03-07,1.14, 2.96, -4.72, 1.96, 1.71, 7.43, repro,
2009-03-08,1.41, -0.02, 9.11, 2.00, 1.78, 7.71, repro,
2009-03-09,2.35, 2.19, -1.79, 2.29, 1.92, 8.56, repro,
2009-03-10,2.85, 3.11, 2.72, 1.99, 1.73, 7.50, repro,
2009-03-11,0.44, 1.82, -2.23, 2.21, 1.99, 8.62, repro,
2009-03-12,0.41, 2.26, -12.31, 2.28, 1.97, 8.75, repro,
2009-03-13,2.48, 2.44, -3.28, 2.07, 1.80, 7.87, repro,
2009-03-14,2.48, 2.03, -0.64, 2.05, 1.76, 7.81, repro,
2009-03-15,1.31, 3.29, 1.19, 2.01, 1.71, 7.66, repro,
2009-03-16,1.38, 2.80, -0.01, 1.98, 1.71, 7.54, repro,
2009-03-17,0.89, 1.89, -1.46, 1.94, 1.70, 7.41, repro,
2009-03-18,0.63, 3.50, -1.97, 1.95, 1.66, 7.42, repro,
2009-03-19,2.90, 4.05, -1.32, 2.37, 2.12, 9.27, repro,
2009-03-20,2.66, 3.08, 0.72, 2.00, 1.71, 7.67, repro,
2009-03-21,2.41, 2.20, -5.29, 2.00, 1.71, 7.60, repro,
2009-03-22,1.94, 3.65, 1.43, 1.93, 1.70, 7.41, repro,
2009-03-23,1.69, 1.93, -0.91, 1.95, 1.66, 7.38, repro,
2009-03-24,1.72, 2.94, 3.02, 1.88, 1.62, 7.16, repro,
2009-03-25,2.41, 3.47, 3.58, 1.96, 1.71, 7.55, repro,
2009-03-26,0.93, 2.61, 6.53, 1.91, 1.65, 7.32, repro,
2009-03-27,2.23, 2.03, 5.63, 2.02, 1.72, 7.68, repro,
2009-03-28,0.56, 4.02, 9.23, 2.00, 1.77, 7.85, repro,
2009-03-29,0.93, 0.41, 19.06, 2.03, 1.75, 7.70, repro,
2009-03-30,2.68, 1.52, 9.43, 2.02, 1.73, 7.64, repro,
2009-03-31,3.09, 2.08, 9.07, 1.96, 1.70, 7.54, repro,
2009-04-01,0.72, 2.20, 9.07, 2.25, 2.03, 8.95, repro,
2009-04-02,1.19, 1.98, 16.06, 1.99, 1.79, 7.78, repro,
2009-04-03,1.13, 1.28, 11.35, 2.08, 1.77, 7.94, repro,
2009-04-04,2.17, 1.44, 6.57, 1.91, 1.67, 7.40, repro,
2009-04-05,1.21, 1.68, -0.05, 1.96, 1.72, 7.63, repro,
2009-04-06,1.60, 0.55, 0.08, 2.01, 1.74, 7.80, repro,
2009-04-07,2.00, 1.38, 2.74, 2.05, 1.70, 7.77, repro,
2009-04-08,2.16, 1.55, 6.43, 1.91, 1.66, 7.36, repro,
2009-04-09,2.64, 1.16, 12.58, 1.96, 1.68, 7.56, repro,
2009-04-10,0.39, 0.77, 5.03, 2.07, 1.79, 8.06, repro,
2009-04-11,2.41, 1.25, 1.23, 2.10, 1.84, 8.32, repro,
2009-04-12,2.80, 2.74, -2.58, 2.05, 1.75, 7.76, repro,